FW7233 Weather Reports


Display with metric or nautical units.
time (UTC)temp
F
wind
direction
speed
MPH
gust
MPH
rain 1hr
in
rain 24hr
in
rain mn
in
humidity
%
barometer
mb
20260831074806 72 143 1.0 2.0 0.00 0.00 0.00 82 1013.9
20260831073807 71 152 1.0 2.0 0.00 0.00 0.00 81 1013.9
20260831071759 71 135 2.0 4.0 0.00 0.00 0.00 82 1013.9
20260831070756 72 157 1.0 3.0 0.00 0.00 0.00 80 1013.9
20260831065754 72 182 1.0 6.0 0.00 0.00 0.00 79 1014.2
20260831064754 71 137 1.0 3.0 0.00 0.00 0.00 82 1014.1
20260831063754 70 145 0.0 3.0 0.00 0.00 0.00 86 1014.0
20260831062756 66 142 0.0 2.0 0.00 0.00 0.00 93 1014.0
20260831055754 61 111 0.0 0.0 0.00 0.00 0.00 99 1014.4
20260831053807 59 142 0.0 0.0 0.00 0.00 0.00 99 1014.3
20260831052808 58 142 0.0 0.0 0.00 0.00 0.00 99 1014.1
20260831051807 58 138 0.0 0.0 0.00 0.00 0.00 99 1014.2
20260831050807 57 138 0.0 0.0 0.00 0.00 0.00 99 1014.5
20260831045754 57 139 0.0 0.0 0.00 0.00 0.00 99 1014.3
20260831044755 57 138 0.0 0.0 0.00 0.00 0.00 99 1014.6
20260831043747 56 141 0.0 0.0 0.00 0.00 0.00 99 1014.2
20260831041744 56 120 0.0 0.0 0.00 0.00 0.00 99 1014.5
20260831035743 55 134 0.0 0.0 0.00 0.00 0.00 99 1014.6
20260831034747 55 144 0.0 0.0 0.00 0.00 0.00 99 1014.3
20260831033744 55 139 0.0 0.0 0.00 0.00 0.00 99 1014.5
20260831032744 55 134 0.0 0.0 0.00 0.00 0.00 99 1014.2
20260831030745 55 131 0.0 0.0 0.00 0.00 0.00 99 1014.6
20260831025743 55 139 0.0 0.0 0.00 0.00 0.00 99 1014.5
20260831024744 56 139 0.0 0.0 0.00 0.00 0.00 99 1014.5
20260831023745 56 134 0.0 0.0 0.00 0.00 0.00 99 1014.4
20260831022746 56 130 0.0 0.0 0.00 0.00 0.00 99 1014.6
20260831020751 56 134 0.0 0.0 0.00 0.00 0.00 99 1014.8
20260831015744 56 134 0.0 0.0 0.00 0.00 0.00 99 1014.9
20260831014746 56 144 0.0 0.0 0.00 0.00 0.00 99 1015.0
20260831013744 56 138 0.0 0.0 0.00 0.00 0.00 99 1014.9
20260831012744 57 139 0.0 0.0 0.00 0.00 0.00 99 1014.5
20260831011745 57 137 0.0 0.0 0.00 0.00 0.00 99 1014.9
20260831010746 57 144 0.0 0.0 0.00 0.00 0.00 99 1014.9
20260831005743 57 144 0.0 0.0 0.00 0.00 0.00 99 1014.8
20260831004757 58 139 0.0 0.0 0.00 0.00 0.00 99 1015.1
20260831003743 58 144 0.0 0.0 0.00 0.00 0.00 99 1015.0
20260831002744 58 144 0.0 0.0 0.00 0.00 0.00 99 1015.1
20260831000742 58 137 0.0 0.0 0.00 0.00 0.00 99 1015.0
20260830235741 58 139 0.0 0.0 0.00 0.00 0.00 99 1014.9
20260830234743 58 149 0.0 1.0 0.00 0.00 0.00 99 1015.0
20260830233741 58 145 0.0 0.0 0.00 0.00 0.00 99 1015.0
20260830231742 59 138 0.0 0.0 0.00 0.00 0.00 99 1014.9
20260830230741 58 135 0.0 0.0 0.00 0.00 0.00 99 1015.1
20260830225741 59 143 0.0 0.0 0.00 0.00 0.00 99 1015.2
20260830224741 58 145 0.0 0.0 0.00 0.00 0.00 99 1015.0
20260830223741 58 142 0.0 0.0 0.00 0.00 0.00 99 1014.9
20260830222743 59 138 0.0 0.0 0.00 0.00 0.00 99 1015.0
20260830221740 59 140 0.0 0.0 0.00 0.00 0.00 99 1014.9
20260830215740 59 132 0.0 0.0 0.00 0.00 0.00 99 1014.9
20260830213740 59 145 0.0 1.0 0.00 0.00 0.00 99 1014.8
20260830212740 59 149 0.0 0.0 0.00 0.00 0.00 99 1014.8
20260830211742 58 135 0.0 1.0 0.00 0.00 0.00 99 1014.7
20260830210740 59 133 0.0 1.0 0.00 0.00 0.00 99 1014.8
20260830205740 59 142 0.0 0.0 0.00 0.00 0.00 99 1014.6
20260830204740 59 137 0.0 0.0 0.00 0.00 0.00 98 1014.6
20260830203742 59 136 0.0 0.0 0.00 0.00 0.00 98 1014.7
20260830202740 60 144 0.0 0.0 0.00 0.00 0.00 98 1014.4
20260830201740 60 144 0.0 0.0 0.00 0.00 0.00 98 1014.7
20260830200740 60 144 0.0 0.0 0.00 0.00 0.00 97 1014.5
20260830195739 61 145 0.0 0.0 0.00 0.00 0.00 97 1014.8
20260830194739 60 134 0.0 1.0 0.00 0.00 0.00 97 1014.5
20260830193739 61 143 0.0 0.0 0.00 0.00 0.00 96 1014.4
20260830191738 61 146 0.0 1.0 0.00 0.00 0.00 96 1014.5
20260830190737 62 147 0.0 1.0 0.00 0.00 0.00 95 1014.3
20260830185731 63 153 0.0 1.0 0.00 0.00 0.00 95 1014.4
20260830184731 63 146 0.0 1.0 0.00 0.00 0.00 94 1014.1
20260830183731 64 142 0.0 1.0 0.00 0.00 0.00 92 1014.4
20260830182730 65 145 0.0 1.0 0.00 0.00 0.00 91 1014.2
20260830181730 66 151 0.0 0.0 0.00 0.00 0.00 90 1014.1
20260830180729 67 145 0.0 0.0 0.00 0.00 0.00 88 1014.0
20260830174730 70 145 0.0 0.0 0.00 0.00 0.00 85 1013.8
20260830172730 72 145 0.0 0.0 0.00 0.00 0.00 80 1013.7
20260830171732 71 144 0.0 1.0 0.00 0.00 0.00 83 1013.4
20260830170731 71 143 0.0 1.0 0.00 0.00 0.00 83 1013.6
20260830165729 71 147 0.0 0.0 0.00 0.00 0.00 82 1013.6
20260830164717 72 147 0.0 0.0 0.00 0.00 0.00 81 1013.4
20260830163719 72 158 0.0 0.0 0.00 0.00 0.00 77 1013.3
20260830162717 73 158 0.0 1.0 0.00 0.00 0.00 75 1013.6
20260830160718 75 122 0.0 1.0 0.00 0.00 0.00 69 1013.3
20260830155717 76 161 0.0 2.0 0.00 0.00 0.00 67 1013.7
20260830154717 80 115 0.0 3.0 0.00 0.00 0.00 58 1013.5
20260830153718 78 153 0.0 4.0 0.00 0.00 0.00 57 1013.7
20260830152717 79 136 0.0 2.0 0.00 0.00 0.00 58 1013.7
20260830151717 79 152 0.0 3.0 0.00 0.00 0.00 55 1014.0
20260830150718 80 136 2.0 4.0 0.00 0.00 0.00 57 1013.8
20260830145717 80 129 1.0 4.0 0.00 0.00 0.00 54 1013.9
20260830144718 82 265 6.0 9.0 0.00 0.00 0.00 50 1013.9
20260830143730 81 206 1.0 8.0 0.00 0.00 0.00 52 1013.7
20260830142717 83 143 1.0 7.0 0.00 0.00 0.00 53 1014.1
20260830135719 82 103 2.0 4.0 0.00 0.00 0.00 50 1014.1
20260830133720 84 189 2.0 7.0 0.00 0.00 0.00 51 1013.9
20260830132730 83 158 3.0 7.0 0.00 0.00 0.00 50 1013.9
20260830131717 82 167 3.0 9.0 0.00 0.00 0.00 50 1014.2
20260830130721 82 158 3.0 7.0 0.00 0.00 0.00 54 1014.2
20260830120720 81 157 2.0 8.0 0.00 0.00 0.00 56 1014.1
20260830115718 81 176 1.0 9.0 0.00 0.00 0.00 53 1014.4
20260830114719 81 209 4.0 6.0 0.00 0.00 0.00 51 1014.4
20260830113718 80 187 1.0 9.0 0.00 0.00 0.00 55 1014.6
20260830112718 80 298 3.0 8.0 0.00 0.00 0.00 54 1014.8
20260830111718 79 161 3.0 7.0 0.00 0.00 0.00 58 1014.6
20260830110724 79 148 2.0 9.0 0.00 0.00 0.00 55 1015.0
20260830105732 79 151 4.0 6.0 0.00 0.00 0.00 54 1014.9
20260830104718 79 174 3.0 8.0 0.00 0.00 0.00 58 1015.0
20260830103719 79 157 2.0 8.0 0.00 0.00 0.00 59 1015.0
20260830102718 78 140 3.0 7.0 0.00 0.00 0.00 58 1015.2
20260830101717 78 124 3.0 7.0 0.00 0.00 0.00 61 1015.3
20260830100718 78 190 3.0 10.0 0.00 0.00 0.00 62 1015.2
20260830095717 78 161 1.0 8.0 0.00 0.00 0.00 62 1015.3
20260830093718 78 158 3.0 8.0 0.00 0.00 0.00 60 1015.2
20260830092717 79 137 3.0 6.0 0.00 0.00 0.00 61 1015.5
20260830091723 78 140 1.0 4.0 0.00 0.00 0.00 63 1015.5
20260830090723 77 212 2.0 7.0 0.00 0.00 0.00 65 1015.8
20260830085717 78 137 2.0 4.0 0.00 0.00 0.00 61 1015.7
20260830084717 76 156 2.0 4.0 0.00 0.00 0.00 67 1015.8
20260830082717 75 149 1.0 4.0 0.00 0.00 0.00 69 1015.6
20260830081717 74 162 1.0 6.0 0.00 0.00 0.00 68 1015.7